This is the latest recevied weather packets stored in our database for station/object AE5HO. If no packets are shown the sender has not sent any weather packets the latest 10 day(s).
| Time | Temp. | Humidity | Pressure | Rain* | Wind** | Luminosity | Snow |
|---|---|---|---|---|---|---|---|
| 1778026991 | 23.89° C | 67% | 1005.4 hPa | 0 mm | - | 4 W/m² | - |
| 1778026686 | 24.44° C | 67% | 1005.4 hPa | 0 mm | - | 5 W/m² | - |
| 1778026384 | 24.44° C | 67% | 1005.4 hPa | 0 mm | - | 12 W/m² | - |
| 1778026081 | 25° C | 66% | 1005.5 hPa | 0 mm | - | 17 W/m² | - |
| 1778025779 | 25° C | 66% | 1005.4 hPa | 0 mm | - | 22 W/m² | - |
| 1778025475 | 25.56° C | 65% | 1005.1 hPa | 0 mm | - | 28 W/m² | - |
| 1778025173 | 26.11° C | 65% | 1005.3 hPa | 0 mm | - | 35 W/m² | - |
| 1778024869 | 26.11° C | 64% | 1005.3 hPa | 0 mm | - | 43 W/m² | - |
| 1778024567 | 26.11° C | 64% | 1005 hPa | 0 mm | - | 42 W/m² | - |
| 1778024263 | 26.67° C | 63% | 1005 hPa | 0 mm | - | 28 W/m² | - |
| 1778023962 | 26.67° C | 63% | 1004.9 hPa | 0 mm | - | 24 W/m² | - |
| 1778023658 | 27.22° C | 63% | 1004.9 hPa | 0 mm | - | 23 W/m² | - |
| 1778023356 | 27.22° C | 62% | 1004.9 hPa | 0 mm | - | 39 W/m² | - |
| 1778023052 | 27.78° C | 62% | 1004.9 hPa | 0 mm | - | 45 W/m² | - |
| 1778022752 | 28.33° C | 61% | 1004.8 hPa | 0 mm | - | 37 W/m² | - |
| 1778022449 | 28.33° C | 60% | 1004.8 hPa | 0 mm | - | 60 W/m² | - |
| 1778022145 | 28.33° C | 59% | 1004.7 hPa | 0 mm | - | 53 W/m² | - |
| 1778021842 | 28.89° C | 58% | 1004.5 hPa | 0 mm | - | 57 W/m² | - |
| 1778021539 | 28.89° C | 58% | 1004.4 hPa | 0 mm | - | 64 W/m² | - |
| 1778021235 | 28.89° C | 57% | 1004.1 hPa | 0 mm | - | 60 W/m² | - |
| 1778020933 | 29.44° C | 56% | 1004.3 hPa | 0 mm | - | 78 W/m² | - |
| 1778020630 | 29.44° C | 55% | 1004.2 hPa | 0 mm | - | 76 W/m² | - |
| 1778020326 | 29.44° C | 53% | 1004.4 hPa | 0 mm | - | 92 W/m² | - |
| 1778020022 | 30° C | 52% | 1004.1 hPa | 0 mm | - | 95 W/m² | - |
| 1778019718 | 30° C | 53% | 1004 hPa | 0 mm | - | 93 W/m² | - |
* Rain latest hour (hover to see other rain measurements)
** Current wind speed in m/s (hover to see current wind gust speed)